Find Starlink 3619

NORAD ID: 51787 Int'l Des: 2022-017 Owner: SPXS Country: US Constellation: starlink operational
LEOCIRCULAR

当前视图

正在加载3D地球...

About Starlink 3619

Starlink 3619 (NORAD 51787) is a starlink constellation satellite (v1.5) launched Feb 25, 2022 by SPXS of US. It operates in LEO, CIRCULAR orbit with a mass of 297.00 kg.

关于 Starlink 3619

正在加载描述...

即将过境

Passes for default location (London). Set your location on the main map for personalized predictions.

高度历史

Loading altitude history...

两行轨道根数

1 51787U 22017V 26171.41668980 .00054278 00000-0 23068-2 0 9996
2 51787 53.1599 247.4264 0001463 129.7141 123.2610 15.22545130 5783
Epoch: Jun 20, 2026 • Age: 32 hours

当前状态

高度 503.6 km
速度 7.62 km/s
星下点 52.83°N, 135.43°E
发射日期 Feb 25, 2022
运行时间 4.3 years
类型 internet

技术详情

分类 Payload
质量 297.00 kg
干质量 275.00 kg
总质量 297.00 kg
长度 0.20 m
直径 2.80 m
跨度 9.00 m
形状 Box + pan
制造商 SPXS
平台类型 Starlink
阶段状态 In Orbit
所有者/国家 SPXS/US

Most Searched